American Glory — WDA8860 — position and weather

sailwx.info

Track history (hours):
 
Tides and Currents Weather Stations Pressure Air Temp Water Temp Dewpoint Dewpoint Depression Visibility Wind Speed Wind Dir Waves Ship Positions

American Glory

Owner: AMERICAN CRUISE LINES INC, DELMAR, DE. More information available from US FCC via Universal Licensing System and Coast Guard Vessel Documentation Center.

Last reported at 2016-Jul-06 07:33 UTC. Time now 2016-Jul-30 11:10 UTC.
Position N 43°36' W 069°53'.
Warning: this ship's position is 24 days out of date.

Length 54 m; draft 2.1 m.

Type: Ship. MMSI: 366858820.

Date/timePositionNaut miles runAvg speedWind from/ knotsBaromVisibWave heightAir tempDewpointWater temp
2016-Jul-06 07:33N 43°36' W 069°53'7 6.9
2016-Jul-06 06:30N 43°30' W 069°58'21 6.9
2016-Jul-06 03:25N 43°10' W 070°11'6 6.5
2016-Jul-06 02:33N 43°05' W 070°14'7 6.7
2016-Jul-06 01:33N 42°59' W 070°18'8 7.5
2016-Jul-06 00:33N 42°53' W 070°23'8 8.1
2016-Jul-05 23:33N 42°46' W 070°28'8 7.8
2016-Jul-05 22:34N 42°39' W 070°33'7 6.7
2016-Jul-05 21:33N 42°34' W 070°39'3 2.4
2016-Jul-05 20:29N 42°37' W 070°39'0 0.0
2016-Jul-05 19:32N 42°37' W 070°39'0 0.0
2016-Jul-05 18:32N 42°37' W 070°39'0 0.0
2016-Jul-05 17:32N 42°37' W 070°39'0 0.0
2016-Jul-05 16:32N 42°37' W 070°39'0 0.0
2016-Jul-05 15:32N 42°37' W 070°39'0 0.0
2016-Jul-05 14:34N 42°37' W 070°39'0 0.0
2016-Jul-05 13:33N 42°37' W 070°39'0 0.0
2016-Jul-05 12:34N 42°37' W 070°39'0 0.0
2016-Jul-05 11:33N 42°37' W 070°39'1 0.8
2016-Jul-05 10:33N 42°36' W 070°40'5 5.4
2016-Jul-05 09:34N 42°31' W 070°41'6 5.9
2016-Jul-05 08:33N 42°25' W 070°41'38 9.1
2016-Jul-05 04:25N 41°48' W 070°29'  
2016-Jul-02 10:29N 41°42' W 071°10'0 0.0
2016-Jul-02 09:29N 41°42' W 071°10'0 0.0
2016-Jul-02 00:29N 41°42' W 071°10'0 0.0
2016-Jul-01 09:22N 41°42' W 071°10'0 0.0
2016-Jul-01 08:28N 41°42' W 071°10'0 0.0
2016-Jul-01 00:17N 41°42' W 071°10'0 0.0
2016-Jun-30 23:17N 41°42' W 071°10'0 0.0
2016-Jun-30 22:29N 41°42' W 071°10'1 1.4
2016-Jun-30 21:33N 41°42' W 071°11'  
2016-Jun-27 22:33N 42°22' W 070°42'9 9.1
2016-Jun-27 21:33N 42°31' W 070°41'6 6.1
2016-Jun-27 20:33N 42°37' W 070°39'0 0.0
2016-Jun-27 19:33N 42°37' W 070°39'0 0.0
2016-Jun-27 18:33N 42°37' W 070°39'0 0.0
2016-Jun-27 17:33N 42°37' W 070°39'0 0.0
2016-Jun-27 16:33N 42°37' W 070°39'0 0.0
2016-Jun-27 15:33N 42°37' W 070°39'0 0.0
2016-Jun-27 14:33N 42°37' W 070°39'0 0.0
2016-Jun-27 13:33N 42°37' W 070°39'0 0.0
2016-Jun-27 12:33N 42°37' W 070°39'0 0.0
2016-Jun-27 11:33N 42°37' W 070°39'0 0.0
2016-Jun-27 10:33N 42°37' W 070°39'2 2.4
2016-Jun-27 09:33N 42°34' W 070°39'7 7.4
2016-Jun-27 08:33N 42°40' W 070°32'8 8.1
2016-Jun-27 07:34N 42°47' W 070°27'8 8.0
2016-Jun-27 06:33N 42°54' W 070°22'58 4.3
2016-Jun-26 17:11N 43°46' W 069°47'5 7.5
2016-Jun-26 16:33N 43°46' W 069°41'  
Track history (hours):
 
Tides and Currents Weather Stations Pressure Air Temp Water Temp Dewpoint Dewpoint Depression Visibility Wind Speed Wind Dir Waves Ship Positions

American Glory

Owner: AMERICAN CRUISE LINES INC, DELMAR, DE. More information available from US FCC via Universal Licensing System and Coast Guard Vessel Documentation Center.

Last reported at 2016-Jul-06 07:33 UTC. Time now 2016-Jul-30 11:10 UTC.
Position N 43°36' W 069°53'.
Warning: this ship's position is 24 days out of date.

Length 54 m; draft 2.1 m.

Type: Ship. MMSI: 366858820.

Date/timePositionNaut miles runAvg speedWind from/ knotsBaromVisibWave heightAir tempDewpointWater temp
2016-Jul-06 07:33N 43°36' W 069°53'7 6.9
2016-Jul-06 06:30N 43°30' W 069°58'21 6.9
2016-Jul-06 03:25N 43°10' W 070°11'6 6.5
2016-Jul-06 02:33N 43°05' W 070°14'7 6.7
2016-Jul-06 01:33N 42°59' W 070°18'8 7.5
2016-Jul-06 00:33N 42°53' W 070°23'8 8.1
2016-Jul-05 23:33N 42°46' W 070°28'8 7.8
2016-Jul-05 22:34N 42°39' W 070°33'7 6.7
2016-Jul-05 21:33N 42°34' W 070°39'3 2.4
2016-Jul-05 20:29N 42°37' W 070°39'0 0.0
2016-Jul-05 19:32N 42°37' W 070°39'0 0.0
2016-Jul-05 18:32N 42°37' W 070°39'0 0.0
2016-Jul-05 17:32N 42°37' W 070°39'0 0.0
2016-Jul-05 16:32N 42°37' W 070°39'0 0.0
2016-Jul-05 15:32N 42°37' W 070°39'0 0.0
2016-Jul-05 14:34N 42°37' W 070°39'0 0.0
2016-Jul-05 13:33N 42°37' W 070°39'0 0.0
2016-Jul-05 12:34N 42°37' W 070°39'0 0.0
2016-Jul-05 11:33N 42°37' W 070°39'1 0.8
2016-Jul-05 10:33N 42°36' W 070°40'5 5.4
2016-Jul-05 09:34N 42°31' W 070°41'6 5.9
2016-Jul-05 08:33N 42°25' W 070°41'38 9.1
2016-Jul-05 04:25N 41°48' W 070°29'  
2016-Jul-02 10:29N 41°42' W 071°10'0 0.0
2016-Jul-02 09:29N 41°42' W 071°10'0 0.0
2016-Jul-02 00:29N 41°42' W 071°10'0 0.0
2016-Jul-01 09:22N 41°42' W 071°10'0 0.0
2016-Jul-01 08:28N 41°42' W 071°10'0 0.0
2016-Jul-01 00:17N 41°42' W 071°10'0 0.0
2016-Jun-30 23:17N 41°42' W 071°10'0 0.0
2016-Jun-30 22:29N 41°42' W 071°10'1 1.4
2016-Jun-30 21:33N 41°42' W 071°11'  
2016-Jun-27 22:33N 42°22' W 070°42'9 9.1
2016-Jun-27 21:33N 42°31' W 070°41'6 6.1
2016-Jun-27 20:33N 42°37' W 070°39'0 0.0
2016-Jun-27 19:33N 42°37' W 070°39'0 0.0
2016-Jun-27 18:33N 42°37' W 070°39'0 0.0
2016-Jun-27 17:33N 42°37' W 070°39'0 0.0
2016-Jun-27 16:33N 42°37' W 070°39'0 0.0
2016-Jun-27 15:33N 42°37' W 070°39'0 0.0
2016-Jun-27 14:33N 42°37' W 070°39'0 0.0
2016-Jun-27 13:33N 42°37' W 070°39'0 0.0
2016-Jun-27 12:33N 42°37' W 070°39'0 0.0
2016-Jun-27 11:33N 42°37' W 070°39'0 0.0
2016-Jun-27 10:33N 42°37' W 070°39'2 2.4
2016-Jun-27 09:33N 42°34' W 070°39'7 7.4
2016-Jun-27 08:33N 42°40' W 070°32'8 8.1
2016-Jun-27 07:34N 42°47' W 070°27'8 8.0
2016-Jun-27 06:33N 42°54' W 070°22'58 4.3
2016-Jun-26 17:11N 43°46' W 069°47'5 7.5
2016-Jun-26 16:33N 43°46' W 069°41'  

Dump ship's entire track history